Regional Weather Roundup
Issued by NWS

Home | Current Version | Previous Version | Graphics & Text | Print | Product List | Glossary On
Versions: 1 2 3 4 5 6 7 8 9 10 11 12 13 14 15 16 17 18 19 20 21 22 23 24 25 26 27 28 29 30 31 32 33 34 35 36 37 38 39 40 41 42 43 44 45 46 47 48 49 50
000
ASUS43 KOAX 190602
RWRNE

WEATHER ROUNDUP FOR NEBRASKA
NATIONAL WEATHER SERVICE OMAHA NE
100 AM CDT TUE SEP 19 2017

NOTES: SATELLITE DATA IS BEING USED TO AUGMENT CLOUD COVER ABOVE
       12000 FEET.
       "FAIR" INDICATES FEW OR NO CLOUDS BELOW 12,000 FEET WITH NO
       SIGNIFICANT WEATHER AND/OR OBSTRUCTIONS TO VISIBILITY.


NEZ001>004-019>022-054>056-190700-
NEBRASKA PANHANDLE

CITY           SKY/WX    TMP DP  RH WIND       PRES   REMARKS
SCOTTSBLUFF    CLOUDY    64  45  49 SE9       29.76F
6HR MIN TEMP:  57; 6HR MAX TEMP:  77;

ALLIANCE       CLOUDY    58  48  69 SE14      29.77F
6HR MIN TEMP:  55; 6HR MAX TEMP:  73;

CHADRON        CLEAR     68  43  40 S25G38    29.69F
6HR MIN TEMP:  68; 6HR MAX TEMP:  82;

GORDON         FAIR      66  47  51 S16G22    29.76F
6HR MIN TEMP:  60; 6HR MAX TEMP:  79;

KIMBALL        CLEAR     61  44  53 S17       29.82F
SIDNEY         CLEAR     63  46  54 S16       29.83F
6HR MIN TEMP:  58; 6HR MAX TEMP:  79;

$$

NEZ057>060-069>072-079>082-190700-
SOUTHWEST NEBRASKA

CITY           SKY/WX    TMP DP  RH WIND       PRES   REMARKS
NORTH PLATTE   CLEAR     58  56  93 E9        29.82F
6HR MIN TEMP:  57; 6HR MAX TEMP:  77;

IMPERIAL       CLEAR     60  52  74 SE9       29.83F
6HR MIN TEMP:  58; 6HR MAX TEMP:  80;

LEXINGTON      CLEAR     64  61  90 SE6       29.83F
MCCOOK         CLEAR     63  59  87 SE10      29.82F
6HR MIN TEMP:  63; 6HR MAX TEMP:  81;

OGALLALA       CLEAR     65  56  70 SE14      29.82F
$$

NEZ005>010-023>029-035>040-094-190700-
NORTH CENTRAL NEBRASKA

CITY           SKY/WX    TMP DP  RH WIND       PRES   REMARKS
VALENTINE      CLEAR     65  58  78 S12       29.77F
6HR MIN TEMP:  65; 6HR MAX TEMP:  81;

BROKEN BOW     CLEAR     58  55  90 CALM      29.83F
6HR MIN TEMP:  53; 6HR MAX TEMP:  74;

O`NEILL        CLEAR     63  63 100 SE8       29.82F FOG
ORD            FOG       55  53  93 CALM      29.82F VSB 1/4
6HR MIN TEMP:  54; 6HR MAX TEMP:  73; 6HR PCP: TRACE;

THEDFORD       CLEAR     64  59  81 S15       29.82F
$$

NEZ041-046>049-061>064-073>077-083>087-190700-
SOUTH CENTRAL NEBRASKA

CITY           SKY/WX    TMP DP  RH WIND       PRES   REMARKS
GRAND ISLAND   CLEAR     64  64 100 SE6       29.86F
6HR MIN TEMP:  64; 6HR MAX TEMP:  74;

AURORA         CLEAR     62  62 100 SE7       29.86S
HASTINGS       CLEAR     66  63  90 SE9       29.86F
6HR MIN TEMP:  66; 6HR MAX TEMP:  78;

HEBRON         CLEAR     68  65  91 SE5       29.85F
HOLDREGE       CLEAR     63  61  94 SE8       29.83F
KEARNEY        CLEAR     63  62  97 SE8       29.84F
YORK           CLEAR     66  66 100 SE9       29.86F
$$

NEZ011>018-030>034-042>045-190700-
NORTHEAST NEBRASKA

CITY           SKY/WX    TMP DP  RH WIND       PRES   REMARKS
NORFOLK        CLEAR     62  62 100 SE7       29.84F FOG
6HR MIN TEMP:  61; 6HR MAX TEMP:  70;

ALBION         PTCLDY    63  62  98 SE6       29.85F FOG
BLAIR          PTCLDY    66  65  97 SE6       29.89F FOG
COLUMBUS       CLEAR     61  61 100 E5        29.87F FOG
FREMONT        PTCLDY    66  65  98 SE7       29.88F FOG
TEKAMAH        CLEAR     64  62  93 SE6       29.87F
6HR MIN TEMP:  64; 6HR MAX TEMP:  71;

WAYNE          CLOUDY    65  63  91 S10       29.86F FOG
$$

NEZ050>053-065>068-078-088>093-190700-
SOUTHEAST NEBRASKA

CITY           SKY/WX    TMP DP  RH WIND       PRES   REMARKS
LINCOLN        CLEAR     68  65  90 SE9       29.87F
6HR MIN TEMP:  65; 6HR MAX TEMP:  74;

OMAHA EPPLEY   PTCLDY    67  64  90 SE9       29.89F
6HR MIN TEMP:  67; 6HR MAX TEMP:  73;

BEATRICE       PTCLDY    68  66  95 SE3       29.87F
FALLS CITY     MOCLDY    67  65  93 SE7       29.89F
6HR MIN TEMP:  66; 6HR MAX TEMP:  76;

NEBRASKA CITY  CLEAR     67  67 100 SE7       29.89F FOG
PLATTSMOUTH    CLEAR     66  66 100 SE7       29.90S FOG
$$

NEZ044-045-051>053-067-190700-
OMAHA AREA

CITY           SKY/WX    TMP DP  RH WIND       PRES   REMARKS
OMAHA EPPLEY   PTCLDY    67  64  90 SE9       29.89F
6HR MIN TEMP:  67; 6HR MAX TEMP:  73;

BLAIR          PTCLDY    66  65  97 SE6       29.89F FOG
FREMONT        PTCLDY    66  65  98 SE7       29.88F FOG
MILLARD        PTCLDY    67  66  96 SE6       29.89F
OFFUTT AFB     CLEAR     66  65  95 E8        29.88F
PLATTSMOUTH    CLEAR     66  66 100 SE7       29.90S FOG
WAHOO          MOCLDY    65  65  97 SE7       29.88S FOG
$$




USA.gov is the U.S. government's official web portal to all federal, state and local government web resources and services.